DELTA 1 DEB, 12230

Orbit data source: Space-Track

DELTA 1 DEB, 12230 is space debris in SSO originally from a launch on Sun, 05 Mar 1978 UTC launched from the Air Force Western Test Range (AFWTR). Debris objects in space refer to the collection of defunct objects orbiting the Earth. Examples of debris include non-operational satellites, rocket bodies, and fragments generated from explosions, collisions, or faulty payload assembly.

Loading next visibility...
Identifier
12230, 1978-026BX
Orbit
SSO
Country
Flag of USUS
Related business
Manufacturer
Unknown
Mission
Spacecraft
Bus & Motor
Unknown
Mass
Unknown
Launch date (UTC)
1978-03-05 (48 years ago)
Launch vehicle
Unknown
Launch site
Air Force Western Test Range (AFWTR)
Object type
Payload
Rocket body
Debris
Shape & HBR
Unknown shape, 0.1 m
Radar Cross Section
Medium (>0.1 m² and <1 m²)

Expand to show TLE details & history
Last TLE update: 3 days ago

TLE from 3 days ago
0 DELTA 1 DEB
1 12230U 78026BX  26170.94276672  .00011306  00000-0  78157-3 0  9992
2 12230  98.0181 171.3495 0034550  67.7586 292.7298 15.05412849381430
Epoch: 2026-06-19T22:37Z
TLE epoch observation values (Epoch: 2026-06-19T22:37:35.044Z)
Latitude
-0.00004°
Longitude
-76.21101°
Altitude
544.111 km
Speed
7.595 km/s
True Right ascension
11h 25m 23s
True Declination
0° 00' 00"
Sunlit
Object was in daylight at epoch
Visualization orbit readout
Latitude
Unknown
Longitude
Unknown
Altitude
Unknown
Speed
Unknown
Apparent Right ascension
Unknown
Apparent Declination
Unknown
Sunlit
N/A
Visualization observer readout
Local Sidereal Time
06:34:52
Azimuth
Unknown
Elevation
Unknown
Doppler factor
Unknown
Orbital elements
Apogee altitude
571.178 km
Perigee altitude
523.324 km
Semi-major axis
6,925.388 km
Eccentricity
0.00346
Inclination
98.0181°
RAAN
171.3495°
Arg. of periapsis
67.7586°
True anomaly
292.36403°
Mean anomaly
292.7298°
Eccentric anomaly
292.54697°
Mean motion
3.76597 °/min
Orbital period
95.59 mins
BSTAR
0.00078157
Loading maneuver chart data...
Computing Atmospheric mass density...

Documentation

Showing up to 5 results
|